Hourly Weather Sambor

Today, 13 July, Monday

Time Temperature Precipitation Wind Pressure Humidity
00:00 +10°C° 0 mm 2 mps 740 mmHg 94%
01:00 +9°C° 0 mm 2 mps 740 mmHg 94%
02:00 +9°C° 0 mm 2 mps 741 mmHg 95%
03:00 +9°C° 0 mm 2 mps 740 mmHg 95%
04:00 +9°C° 0 mm 2 mps 740 mmHg 95%
05:00 +9°C° 0 mm 2 mps 740 mmHg 96%
06:00 +10°C° 0 mm 2 mps 740 mmHg 93%
07:00 +11°C° 0 mm 3 mps 740 mmHg 90%
08:00 +13°C° 0 mm 3 mps 740 mmHg 87%
09:00 +14°C° 0.1 mm 4 mps 740 mmHg 80%
10:00 +15°C° 0.1 mm 4 mps 740 mmHg 73%
11:00 +17°C° 0.1 mm 4 mps 740 mmHg 66%
12:00 +18°C° 0.2 mm 4 mps 740 mmHg 66%
13:00 +18°C° 0.2 mm 4 mps 740 mmHg 66%
14:00 +18°C° 0.2 mm 4 mps 740 mmHg 66%
15:00 +18°C° 0.2 mm 4 mps 739 mmHg 67%
16:00 +18°C° 0.2 mm 4 mps 739 mmHg 68%
17:00 +18°C° 0.2 mm 4 mps 739 mmHg 70%
18:00 +17°C° 0.1 mm 3 mps 738 mmHg 76%
19:00 +15°C° 0.1 mm 2 mps 738 mmHg 81%
20:00 +14°C° 0.1 mm 1 mps 738 mmHg 87%
21:00 +13°C° 0 mm 1 mps 738 mmHg 89%
22:00 +12°C° 0 mm 1 mps 738 mmHg 90%
23:00 +11°C° 0 mm 1 mps 738 mmHg 92%

Tomorrow, 14 July, Tuesday

Time Temperature Precipitation Wind Pressure Humidity
00:00 +11°C° 0 mm 1 mps 738 mmHg 92%
01:00 +11°C° 0 mm 1 mps 738 mmHg 93%
02:00 +10°C° 0 mm 1 mps 738 mmHg 93%
03:00 +10°C° 0 mm 1 mps 738 mmHg 93%
04:00 +10°C° 0 mm 1 mps 738 mmHg 94%
05:00 +10°C° 0 mm 1 mps 737 mmHg 94%
06:00 +12°C° 0 mm 1 mps 738 mmHg 90%
07:00 +14°C° 0 mm 2 mps 738 mmHg 87%
08:00 +15°C° 0 mm 2 mps 738 mmHg 83%
09:00 +17°C° 0 mm 2 mps 738 mmHg 79%
10:00 +18°C° 0 mm 2 mps 737 mmHg 75%
11:00 +19°C° 0 mm 2 mps 737 mmHg 71%
12:00 +20°C° 0.2 mm 2 mps 737 mmHg 69%
13:00 +20°C° 0.2 mm 2 mps 737 mmHg 67%
14:00 +21°C° 0.2 mm 2 mps 736 mmHg 66%
15:00 +21°C° 0.2 mm 2 mps 736 mmHg 67%
16:00 +21°C° 0.2 mm 2 mps 736 mmHg 68%
17:00 +21°C° 0.2 mm 2 mps 736 mmHg 69%
18:00 +19°C° 0.2 mm 2 mps 736 mmHg 76%
19:00 +19°C° 0.2 mm 1 mps 736 mmHg 83%
20:00 +16°C° 0.2 mm 1 mps 736 mmHg 90%
21:00 +15°C° 0 mm 1 mps 736 mmHg 90%
22:00 +14°C° 0 mm 1 mps 736 mmHg 91%
23:00 +12°C° 0 mm 0 mps 736 mmHg 92%

Day after tomorrow, 15 July, Wednesday

Time Temperature Precipitation Wind Pressure Humidity
00:00 +12°C° 0 mm 0 mps 736 mmHg 92%
01:00 +12°C° 0 mm 0 mps 736 mmHg 93%
02:00 +11°C° 0 mm 0 mps 736 mmHg 93%
03:00 +11°C° 0 mm 0 mps 735 mmHg 93%
04:00 +11°C° 0 mm 0 mps 735 mmHg 93%
05:00 +12°C° 0 mm 1 mps 735 mmHg 93%
06:00 +14°C° 0 mm 1 mps 735 mmHg 90%
07:00 +15°C° 0 mm 1 mps 736 mmHg 87%
08:00 +18°C° 0 mm 1 mps 736 mmHg 83%
09:00 +20°C° 0 mm 1 mps 736 mmHg 77%
10:00 +21°C° 0 mm 1 mps 736 mmHg 71%
11:00 +23°C° 0 mm 1 mps 736 mmHg 64%
12:00 +23°C° 0 mm 1 mps 735 mmHg 63%
13:00 +24°C° 0 mm 1 mps 735 mmHg 62%
14:00 +24°C° 0 mm 2 mps 735 mmHg 60%
15:00 +24°C° 0.6 mm 2 mps 735 mmHg 65%
16:00 +24°C° 0.6 mm 2 mps 735 mmHg 70%
17:00 +23°C° 0.6 mm 2 mps 734 mmHg 74%
18:00 +21°C° 0.4 mm 2 mps 734 mmHg 78%
19:00 +20°C° 0.4 mm 1 mps 734 mmHg 81%
20:00 +19°C° 0.4 mm 1 mps 734 mmHg 84%
21:00 +17°C° 0 mm 2 mps 734 mmHg 86%
22:00 +16°C° 0 mm 2 mps 734 mmHg 87%
23:00 +16°C° 0 mm 2 mps 734 mmHg 88%

16 July, Thursday

Time Temperature Precipitation Wind Pressure Humidity
00:00 +15°C° 0 mm 2 mps 734 mmHg 88%
01:00 +15°C° 0 mm 2 mps 734 mmHg 89%
02:00 +14°C° 0 mm 2 mps 734 mmHg 89%
03:00 +14°C° 0 mm 2 mps 734 mmHg 89%
04:00 +14°C° 0 mm 2 mps 733 mmHg 89%
05:00 +14°C° 0 mm 2 mps 733 mmHg 89%
06:00 +16°C° 0 mm 1 mps 733 mmHg 86%
07:00 +18°C° 0 mm 1 mps 734 mmHg 84%
08:00 +20°C° 0 mm 1 mps 734 mmHg 81%
09:00 +21°C° 0.2 mm 1 mps 734 mmHg 76%
10:00 +22°C° 0.2 mm 1 mps 733 mmHg 72%
11:00 +23°C° 0.2 mm 1 mps 733 mmHg 67%
12:00 +24°C° 0.5 mm 2 mps 733 mmHg 68%
13:00 +24°C° 0.5 mm 2 mps 733 mmHg 69%
14:00 +24°C° 0.5 mm 2 mps 733 mmHg 69%
15:00 +23°C° 1 mm 2 mps 733 mmHg 73%
16:00 +23°C° 1 mm 2 mps 733 mmHg 77%
17:00 +21°C° 1 mm 3 mps 733 mmHg 81%
18:00 +20°C° 0.4 mm 2 mps 733 mmHg 85%
19:00 +19°C° 0.4 mm 2 mps 733 mmHg 88%
20:00 +18°C° 0.4 mm 2 mps 733 mmHg 92%
21:00 +17°C° 0 mm 2 mps 733 mmHg 93%
22:00 +17°C° 0 mm 2 mps 733 mmHg 93%
23:00 +16°C° 0 mm 2 mps 733 mmHg 94%

17 July, Friday

Time Temperature Precipitation Wind Pressure Humidity
00:00 +16°C° 0 mm 2 mps 733 mmHg 94%
01:00 +16°C° 0 mm 2 mps 734 mmHg 94%
02:00 +15°C° 0 mm 1 mps 734 mmHg 94%
03:00 +15°C° 0.1 mm 1 mps 734 mmHg 95%
04:00 +15°C° 0.1 mm 1 mps 734 mmHg 96%
05:00 +15°C° 0.1 mm 1 mps 734 mmHg 96%
06:00 +16°C° 0 mm 1 mps 734 mmHg 95%
07:00 +16°C° 0 mm 2 mps 734 mmHg 93%
08:00 +17°C° 0 mm 2 mps 734 mmHg 91%
09:00 +18°C° 0 mm 2 mps 735 mmHg 88%
10:00 +18°C° 0 mm 2 mps 735 mmHg 84%
11:00 +19°C° 0 mm 2 mps 735 mmHg 81%
12:00 +19°C° 0.1 mm 2 mps 735 mmHg 81%
13:00 +19°C° 0.1 mm 2 mps 734 mmHg 81%
14:00 +19°C° 0.1 mm 2 mps 734 mmHg 81%
15:00 +18°C° 0.1 mm 2 mps 734 mmHg 85%
16:00 +18°C° 0.1 mm 2 mps 734 mmHg 88%
17:00 +17°C° 0.1 mm 2 mps 734 mmHg 91%
18:00 +16°C° 0.2 mm 2 mps 734 mmHg 92%
19:00 +16°C° 0.2 mm 1 mps 734 mmHg 94%
20:00 +15°C° 0.2 mm 1 mps 734 mmHg 95%
21:00 +15°C° 0.2 mm 1 mps 734 mmHg 96%
22:00 +15°C° 0.2 mm 1 mps 734 mmHg 96%
23:00 +15°C° 0.2 mm 1 mps 734 mmHg 97%

18 July, Saturday

Time Temperature Precipitation Wind Pressure Humidity
00:00 +15°C° 0 mm 1 mps 734 mmHg 97%
01:00 +15°C° 0 mm 1 mps 734 mmHg 98%
02:00 +15°C° 0 mm 1 mps 734 mmHg 98%
03:00 +15°C° 0.1 mm 1 mps 734 mmHg 98%
04:00 +15°C° 0.1 mm 1 mps 734 mmHg 98%
05:00 +15°C° 0.1 mm 1 mps 734 mmHg 99%
06:00 +15°C° 0 mm 1 mps 734 mmHg 98%
07:00 +16°C° 0 mm 1 mps 734 mmHg 97%
08:00 +16°C° 0 mm 1 mps 734 mmHg 97%
09:00 +16°C° 0.6 mm 1 mps 734 mmHg 97%
10:00 +16°C° 0.6 mm 1 mps 734 mmHg 97%
11:00 +18°C° 0.6 mm 1 mps 735 mmHg 97%
12:00 +18°C° 0.8 mm 1 mps 734 mmHg 97%
13:00 +18°C° 0.8 mm 1 mps 734 mmHg 97%
14:00 +18°C° 0.8 mm 1 mps 734 mmHg 98%
15:00 +18°C° 0.5 mm 1 mps 734 mmHg 98%
16:00 +18°C° 0.5 mm 1 mps 734 mmHg 98%
17:00 +19°C° 0.5 mm 1 mps 734 mmHg 98%
18:00 +18°C° 0 mm 1 mps 734 mmHg 98%
19:00 +18°C° 0 mm 1 mps 734 mmHg 98%
20:00 +18°C° 0 mm 1 mps 734 mmHg 98%
21:00 +18°C° 0 mm 1 mps 734 mmHg 98%
22:00 +16°C° 0 mm 0 mps 734 mmHg 98%
23:00 +16°C° 0 mm 0 mps 734 mmHg 97%
Show more